Flag for U.S.A. Weather past 2 weeks in Germantown, Maryland, U.S.A.

Now
81 °F

Sunny.


Feels Like: 84 °F
Forecast: 67 / 90 °F
Wind: No wind

Location: Frederick Municipal Airport

Current Time: Sep 1, 2015 at 10:41:49 AM

Latest Report: Sep 1, 2015 at 9:48 AM


Visibility: 10 mi

Pressure: 30.12 "Hg

Humidity: 70%

Dew point: 70 °F

Location of GermantownLocation

Historic Weather in Germantown — Graph

°F

Germantown temperature yesterday

Maximum temperature yesterday: 90 °F (at 1:45 PM)
Minimum temperature yesterday: 72 °F (at 12:50 AM)
Average temperature yesterday: 76 °F

Past Weeks' High & Low Weather Summary

 TemperatureHumidityPressure
High97 °F (Aug 17, 2:45 PM)100% (Aug 18, 3:50 AM)30.25 "Hg (Aug 18, 3:50 AM)
Low54 °F (Aug 22, 3:45 AM)34% (Aug 17, 2:45 PM)29.84 "Hg (Aug 24, 6:45 PM)
Average70 °F84%30.06 "Hg
* Reported Aug 17 8:49 AM — Sep 1 8:45 AM, Germantown, Weather by CustomWeather, © 2015

Note: Actual official high and low records may vary slightly from our data, if they occured in-between our weather recording intervals... More about our weather records

Advertising

Germantown weather history for previous 24 hours

 ConditionsComfort  
Time TempWeatherWind HumidityBarometerVisibility
8:45 AM
Tue, Sep 1
73 °FSunny.No wind89%30.11 "Hg10 mi
7:50 AM68 °FSunny.No wind100%30.11 "Hg7 mi
6:50 AM64 °FClear.No wind100%30.09 "Hg7 mi
6:20 AM64 °FClear.No wind100%30.08 "Hg7 mi
6:15 AM64 °FFog.No wind100%30.07 "Hg5 mi
5:55 AM64 °FFog.No wind100%30.07 "Hg4 mi
5:35 AM66 °FClear.No wind100%30.07 "Hg7 mi
5:15 AM64 °FFog.No wind100%30.07 "Hg3 mi
4:55 AM68 °FClear.No wind100%30.07 "Hg10 mi
4:35 AM66 °FClear.No wind100%30.07 "Hg10 mi
4:15 AM66 °FClear.No wind100%30.07 "Hg7 mi
3:55 AM68 °FClear.No wind100%30.07 "Hg10 mi
3:35 AM68 °FClear.No wind100%30.07 "Hg7 mi
3:15 AM68 °FClear.No wind100%30.07 "Hg7 mi
2:55 AM68 °FClear.5 mph100%30.08 "Hg10 mi
2:35 AM68 °FClear.3 mph100%30.08 "Hg10 mi
2:15 AM68 °FClear.3 mph100%30.08 "Hg10 mi
1:55 AM70 °FClear.3 mph94%30.08 "Hg10 mi
1:35 AM70 °FClear.3 mph94%30.08 "Hg10 mi
1:15 AM70 °FClear.3 mph94%30.08 "Hg10 mi
12:55 AM70 °FClear.3 mph94%30.09 "Hg10 mi
11:35 PM
Mon, Aug 31
72 °FClear.No wind94%30.09 "Hg10 mi
10:55 PM72 °FClear.3 mph94%30.09 "Hg10 mi
10:15 PM72 °FClear.No wind94%30.08 "Hg10 mi
9:55 PM72 °FClear.No wind88%30.08 "Hg10 mi
9:35 PM73 °FClear.No wind89%30.07 "Hg10 mi
9:15 PM73 °FClear.No wind89%30.07 "Hg10 mi
8:55 PM73 °FClear.No wind89%30.07 "Hg10 mi
8:35 PM75 °FSunny.5 mph83%30.06 "Hg10 mi
6:55 PM84 °FSunny.5 mph62%30.05 "Hg10 mi
5:48 PM84 °FPassing clouds.8 mph62%30.06 "Hg10 mi
4:49 PM88 °FScattered clouds.8 mph55%30.06 "Hg10 mi
3:55 PM90 °FScattered clouds.12 mph52%30.06 "Hg10 mi
2:48 PM90 °FBroken clouds.8 mph52%30.08 "Hg10 mi
1:45 PM90 °FScattered clouds.6 mph52%30.09 "Hg10 mi
12:50 PM88 °FPassing clouds.6 mph55%30.11 "Hg10 mi
11:48 AM86 °FSunny.7 mph59%30.13 "Hg10 mi
10:52 AM88 °FSunny.6 mph55%30.13 "Hg10 mi
Weather by CustomWeather, © 2015

See weather overviewHow to use our weather pages